| time (UTC) | temp C | wind direction | speed KPH | gust KPH | rain 1hr cm | rain 24hr cm | rain mn cm | humidity % | barometer mb |
| 20260502214439 | 14 | 321 | 0.0 | 0.0 | 0.00 | 0.00 | 0.00 | 56 | 1022.7 |
| 20260502213438 | 14 | 42 | 0.0 | 1.6 | 0.00 | 0.00 | 0.00 | 55 | 1022.7 |
| 20260502212938 | 14 | 166 | 0.0 | 1.6 | 0.00 | 0.00 | 0.00 | 55 | 1022.7 |
| 20260502212438 | 14 | 231 | 0.0 | 0.0 | 0.00 | 0.00 | 0.00 | 54 | 1022.7 |
| 20260502211938 | 14 | 79 | 0.0 | 1.6 | 0.00 | 0.00 | 0.00 | 55 | 1022.4 |
| 20260502211439 | 15 | 239 | 0.0 | 1.6 | 0.00 | 0.00 | 0.00 | 54 | 1022.4 |
| 20260502210938 | 15 | 223 | 0.0 | 1.6 | 0.00 | 0.00 | 0.00 | 53 | 1022.7 |
| 20260502210438 | 15 | 62 | 0.0 | 1.6 | 0.00 | 0.00 | 0.00 | 54 | 1022.7 |
| 20260502205937 | 14 | 150 | 0.0 | 1.6 | 0.00 | 0.00 | 0.00 | 53 | 1022.7 |
| 20260502205438 | 15 | 281 | 0.0 | 1.6 | 0.00 | 0.00 | 0.00 | 55 | 1022.7 |
| 20260502204938 | 15 | 67 | 0.0 | 1.6 | 0.00 | 0.00 | 0.00 | 54 | 1022.7 |
| 20260502204438 | 15 | 59 | 0.0 | 1.6 | 0.00 | 0.00 | 0.00 | 54 | 1022.7 |
| 20260502203939 | 15 | 258 | 0.0 | 1.6 | 0.00 | 0.00 | 0.00 | 53 | 1022.7 |
| 20260502203438 | 15 | 71 | 0.0 | 1.6 | 0.00 | 0.00 | 0.00 | 52 | 1022.7 |
| 20260502202440 | 15 | 57 | 0.0 | 1.6 | 0.00 | 0.00 | 0.00 | 52 | 1022.7 |
| 20260502201939 | 15 | 56 | 1.6 | 1.6 | 0.00 | 0.00 | 0.00 | 52 | 1022.7 |
| 20260502201438 | 16 | 221 | 0.0 | 1.6 | 0.00 | 0.00 | 0.00 | 51 | 1022.5 |
| 20260502200938 | 16 | 121 | 0.0 | 1.6 | 0.00 | 0.00 | 0.00 | 50 | 1022.6 |
| 20260502195915 | 16 | 102 | 0.0 | 1.6 | 0.00 | 0.00 | 0.00 | 50 | 1022.4 |
| 20260502194918 | 16 | 248 | 0.0 | 1.6 | 0.00 | 0.00 | 0.00 | 50 | 1022.4 |
| 20260502194415 | 16 | 250 | 1.6 | 1.6 | 0.00 | 0.00 | 0.00 | 50 | 1022.4 |
| 20260502193915 | 16 | 149 | 0.0 | 1.6 | 0.00 | 0.00 | 0.00 | 49 | 1022.0 |
| 20260502193415 | 16 | 64 | 1.6 | 1.6 | 0.00 | 0.00 | 0.00 | 50 | 1022.4 |
| 20260502192917 | 16 | 253 | 0.0 | 1.6 | 0.00 | 0.00 | 0.00 | 50 | 1022.4 |
| 20260502192417 | 16 | 214 | 0.0 | 1.6 | 0.00 | 0.00 | 0.00 | 49 | 1022.0 |
| 20260502191916 | 16 | 324 | 0.0 | 1.6 | 0.00 | 0.00 | 0.00 | 49 | 1022.2 |
| 20260502191415 | 17 | 83 | 0.0 | 3.2 | 0.00 | 0.00 | 0.00 | 48 | 1022.0 |
| 20260502190915 | 17 | 238 | 0.0 | 3.2 | 0.00 | 0.00 | 0.00 | 48 | 1022.0 |
| 20260502190416 | 16 | 109 | 1.6 | 3.2 | 0.00 | 0.00 | 0.00 | 48 | 1022.0 |
| 20260502185917 | 17 | 226 | 0.0 | 1.6 | 0.00 | 0.00 | 0.00 | 49 | 1022.1 |
| 20260502185416 | 17 | 238 | 0.0 | 1.6 | 0.00 | 0.00 | 0.00 | 48 | 1022.0 |
| 20260502184916 | 17 | 15 | 0.0 | 1.6 | 0.00 | 0.00 | 0.00 | 48 | 1021.9 |
| 20260502183915 | 17 | 106 | 0.0 | 1.6 | 0.00 | 0.00 | 0.00 | 46 | 1021.8 |
| 20260502182416 | 18 | 172 | 0.0 | 1.6 | 0.00 | 0.00 | 0.00 | 46 | 1021.7 |
| 20260502181415 | 18 | 148 | 0.0 | 1.6 | 0.00 | 0.00 | 0.00 | 47 | 1021.6 |
| 20260502180916 | 18 | 246 | 0.0 | 1.6 | 0.00 | 0.00 | 0.00 | 47 | 1021.7 |
| 20260502180416 | 18 | 183 | 0.0 | 1.6 | 0.00 | 0.00 | 0.00 | 47 | 1021.3 |
| 20260502170416 | 20 | 74 | 1.6 | 3.2 | 0.00 | 0.00 | 0.00 | 40 | 1021.3 |
| 20260502163915 | 21 | 204 | 0.0 | 3.2 | 0.00 | 0.00 | 0.00 | 39 | 1021.1 |
| 20260502162915 | 21 | 69 | 1.6 | 3.2 | 0.00 | 0.00 | 0.00 | 37 | 1021.3 |
| 20260502162415 | 21 | 258 | 0.0 | 3.2 | 0.00 | 0.00 | 0.00 | 37 | 1021.3 |
| 20260502161915 | 21 | 154 | 0.0 | 4.8 | 0.00 | 0.00 | 0.00 | 37 | 1021.3 |
| 20260502161420 | 21 | 92 | 0.0 | 4.8 | 0.00 | 0.00 | 0.00 | 37 | 1021.3 |
| 20260502160915 | 22 | 248 | 1.6 | 12.9 | 0.00 | 0.00 | 0.00 | 35 | 1021.3 |
| 20260502160416 | 22 | 234 | 3.2 | 12.9 | 0.00 | 0.00 | 0.00 | 35 | 1021.3 |
| 20260502151915 | 23 | 252 | 4.8 | 12.9 | 0.00 | 0.00 | 0.00 | 31 | 1021.7 |
| 20260502151415 | 24 | 251 | 8.0 | 11.3 | 0.00 | 0.00 | 0.00 | 31 | 1021.6 |
| 20260502150915 | 25 | 254 | 3.2 | 14.5 | 0.00 | 0.00 | 0.00 | 30 | 1021.3 |
| 20260502150416 | 25 | 249 | 4.8 | 14.5 | 0.00 | 0.00 | 0.00 | 30 | 1021.7 |
| 20260502130416 | 23 | 245 | 4.8 | 14.5 | 0.00 | 0.00 | 0.00 | 30 | 1023.0 |
| 20260502123416 | 23 | 282 | 8.0 | 14.5 | 0.00 | 0.00 | 0.00 | 29 | 1023.4 |
| 20260502122916 | 23 | 231 | 6.4 | 14.5 | 0.00 | 0.00 | 0.00 | 30 | 1023.7 |
| 20260502122418 | 23 | 247 | 8.0 | 14.5 | 0.00 | 0.00 | 0.00 | 29 | 1023.7 |
| 20260502121915 | 23 | 232 | 8.0 | 14.5 | 0.00 | 0.00 | 0.00 | 29 | 1023.5 |
| 20260502121416 | 23 | 229 | 4.8 | 14.5 | 0.00 | 0.00 | 0.00 | 29 | 1023.7 |
| 20260502120916 | 23 | 242 | 4.8 | 14.5 | 0.00 | 0.00 | 0.00 | 29 | 1023.7 |
| 20260502120416 | 23 | 269 | 3.2 | 14.5 | 0.00 | 0.00 | 0.00 | 29 | 1024.0 |
| 20260502115415 | 23 | 257 | 4.8 | 14.5 | 0.00 | 0.00 | 0.00 | 29 | 1024.0 |
| 20260502114917 | 23 | 234 | 8.0 | 14.5 | 0.00 | 0.00 | 0.00 | 29 | 1024.0 |
| 20260502113915 | 23 | 259 | 4.8 | 12.9 | 0.00 | 0.00 | 0.00 | 29 | 1024.3 |
| 20260502112915 | 22 | 254 | 4.8 | 19.3 | 0.00 | 0.00 | 0.00 | 30 | 1024.2 |
| 20260502112415 | 23 | 271 | 8.0 | 14.5 | 0.00 | 0.00 | 0.00 | 30 | 1024.4 |
| 20260502111915 | 23 | 218 | 4.8 | 12.9 | 0.00 | 0.00 | 0.00 | 29 | 1024.4 |
| 20260502110916 | 22 | 261 | 4.8 | 11.3 | 0.00 | 0.00 | 0.00 | 30 | 1024.6 |
| 20260502110416 | 23 | 256 | 4.8 | 12.9 | 0.00 | 0.00 | 0.00 | 31 | 1024.4 |
| 20260502105916 | 22 | 255 | 4.8 | 12.9 | 0.00 | 0.00 | 0.00 | 31 | 1024.5 |
| 20260502105416 | 22 | 233 | 6.4 | 12.9 | 0.00 | 0.00 | 0.00 | 31 | 1024.9 |
| 20260502104915 | 22 | 239 | 6.4 | 11.3 | 0.00 | 0.00 | 0.00 | 31 | 1024.9 |
| 20260502104416 | 22 | 235 | 4.8 | 12.9 | 0.00 | 0.00 | 0.00 | 31 | 1025.1 |
| 20260502103915 | 22 | 227 | 3.2 | 12.9 | 0.00 | 0.00 | 0.00 | 31 | 1025.1 |
| 20260502103415 | 22 | 242 | 3.2 | 12.9 | 0.00 | 0.00 | 0.00 | 31 | 1025.1 |
| 20260502101916 | 21 | 252 | 4.8 | 11.3 | 0.00 | 0.00 | 0.00 | 32 | 1025.6 |
| 20260502100916 | 21 | 262 | 3.2 | 8.0 | 0.00 | 0.00 | 0.00 | 32 | 1025.7 |
| 20260502100416 | 21 | 235 | 1.6 | 4.8 | 0.00 | 0.00 | 0.00 | 35 | 1025.8 |
| 20260502091417 | 18 | 53 | 1.6 | 3.2 | 0.00 | 0.00 | 0.00 | 45 | 1027.0 |
| 20260502090915 | 18 | 279 | 0.0 | 3.2 | 0.00 | 0.00 | 0.00 | 45 | 1026.8 |
| 20260502090417 | 18 | 31 | 0.0 | 3.2 | 0.00 | 0.00 | 0.00 | 45 | 1027.1 |
| 20260502071415 | 13 | 57 | 1.6 | 4.8 | 0.00 | 0.00 | 0.00 | 57 | 1028.8 |
| 20260502070916 | 13 | 18 | 1.6 | 4.8 | 0.00 | 0.00 | 0.00 | 57 | 1028.8 |
| 20260502070415 | 13 | 55 | 0.0 | 4.8 | 0.00 | 0.00 | 0.00 | 58 | 1028.9 |
| 20260502065916 | 13 | 42 | 1.6 | 4.8 | 0.00 | 0.00 | 0.00 | 59 | 1028.8 |
| 20260502065415 | 13 | 79 | 3.2 | 4.8 | 0.00 | 0.00 | 0.00 | 59 | 1029.1 |
| 20260502064915 | 12 | 38 | 1.6 | 4.8 | 0.00 | 0.00 | 0.00 | 60 | 1028.8 |
| 20260502064416 | 12 | 29 | 3.2 | 4.8 | 0.00 | 0.00 | 0.00 | 61 | 1029.1 |
| 20260502063915 | 12 | 350 | 0.0 | 4.8 | 0.00 | 0.00 | 0.00 | 61 | 1029.1 |
| 20260502063415 | 12 | 73 | 1.6 | 3.2 | 0.00 | 0.00 | 0.00 | 61 | 1029.1 |
| 20260502062915 | 12 | 42 | 1.6 | 3.2 | 0.00 | 0.00 | 0.00 | 61 | 1029.0 |
| 20260502061915 | 12 | 50 | 0.0 | 3.2 | 0.00 | 0.00 | 0.00 | 63 | 1029.1 |
| 20260502061416 | 11 | 47 | 0.0 | 3.2 | 0.00 | 0.00 | 0.00 | 64 | 1029.1 |
| 20260502060916 | 11 | 40 | 0.0 | 1.6 | 0.00 | 0.00 | 0.00 | 65 | 1029.1 |
| 20260502060415 | 11 | 226 | 1.6 | 4.8 | 0.00 | 0.00 | 0.00 | 65 | 1029.1 |
| 20260502055916 | 11 | 50 | 0.0 | 4.8 | 0.00 | 0.00 | 0.00 | 66 | 1029.1 |
| 20260502055416 | 11 | 48 | 1.6 | 11.3 | 0.00 | 0.00 | 0.00 | 67 | 1029.2 |
| 20260502054917 | 10 | 62 | 1.6 | 12.9 | 0.00 | 0.00 | 0.00 | 67 | 1029.5 |
| 20260502054416 | 10 | 58 | 1.6 | 12.9 | 0.00 | 0.00 | 0.00 | 67 | 1029.5 |
| 20260502053917 | 10 | 56 | 8.0 | 12.9 | 0.00 | 0.00 | 0.00 | 67 | 1029.5 |
| 20260502053416 | 10 | 66 | 1.6 | 11.3 | 0.00 | 0.00 | 0.00 | 68 | 1029.2 |
| 20260502052918 | 10 | 72 | 3.2 | 11.3 | 0.00 | 0.00 | 0.00 | 67 | 1029.5 |
| 20260502052419 | 10 | 53 | 1.6 | 3.2 | 0.00 | 0.00 | 0.00 | 66 | 1029.5 |
| 20260502051916 | 10 | 66 | 0.0 | 1.6 | 0.00 | 0.00 | 0.00 | 69 | 1029.3 |
| 20260502051416 | 10 | 52 | 0.0 | 1.6 | 0.00 | 0.00 | 0.00 | 69 | 1029.1 |
| 20260502050917 | 10 | 66 | 0.0 | 1.6 | 0.00 | 0.00 | 0.00 | 69 | 1029.5 |
| 20260502050416 | 10 | 358 | 1.6 | 1.6 | 0.00 | 0.00 | 0.00 | 69 | 1029.5 |
| 20260502045915 | 10 | 34 | 0.0 | 3.2 | 0.00 | 0.00 | 0.00 | 69 | 1029.7 |
| 20260502045415 | 9 | 8 | 0.0 | 3.2 | 0.00 | 0.00 | 0.00 | 71 | 1029.7 |
| 20260502044916 | 9 | 253 | 1.6 | 3.2 | 0.00 | 0.00 | 0.00 | 70 | 1029.8 |
| 20260502044416 | 9 | 249 | 1.6 | 3.2 | 0.00 | 0.00 | 0.00 | 71 | 1029.5 |
| 20260502042916 | 9 | 248 | 1.6 | 1.6 | 0.00 | 0.00 | 0.00 | 71 | 1029.1 |
| 20260502042415 | 9 | 259 | 1.6 | 3.2 | 0.00 | 0.00 | 0.00 | 70 | 1029.1 |
| 20260502041917 | 9 | 78 | 0.0 | 3.2 | 0.00 | 0.00 | 0.00 | 71 | 1029.1 |
| 20260502041416 | 9 | 244 | 1.6 | 3.2 | 0.00 | 0.00 | 0.00 | 70 | 1029.2 |
| 20260502040916 | 8 | 222 | 0.0 | 1.6 | 0.00 | 0.00 | 0.00 | 71 | 1029.2 |
| 20260502035916 | 9 | 144 | 0.0 | 1.6 | 0.00 | 0.00 | 0.00 | 71 | 1029.1 |
| 20260502035416 | 9 | 100 | 0.0 | 1.6 | 0.00 | 0.00 | 0.00 | 70 | 1029.1 |
| 20260502034916 | 9 | 61 | 1.6 | 1.6 | 0.00 | 0.00 | 0.00 | 71 | 1029.1 |
| 20260502034416 | 9 | 238 | 0.0 | 1.6 | 0.00 | 0.00 | 0.00 | 70 | 1029.1 |
| 20260502033916 | 9 | 179 | 0.0 | 3.2 | 0.00 | 0.00 | 0.00 | 69 | 1029.1 |
| 20260502033416 | 9 | 25 | 0.0 | 3.2 | 0.00 | 0.00 | 0.00 | 69 | 1029.1 |
| 20260502032916 | 9 | 58 | 0.0 | 3.2 | 0.00 | 0.00 | 0.00 | 69 | 1029.1 |
| 20260502032415 | 9 | 247 | 0.0 | 1.6 | 0.00 | 0.00 | 0.00 | 69 | 1029.1 |
| 20260502031918 | 9 | 53 | 0.0 | 1.6 | 0.00 | 0.00 | 0.00 | 70 | 1029.1 |
| 20260502030915 | 9 | 248 | 0.0 | 1.6 | 0.00 | 0.00 | 0.00 | 69 | 1029.1 |
| 20260502030416 | 9 | 255 | 0.0 | 1.6 | 0.00 | 0.00 | 0.00 | 69 | 1029.1 |
| 20260502025416 | 10 | 83 | 0.0 | 1.6 | 0.00 | 0.00 | 0.00 | 68 | 1029.1 |
| 20260502024916 | 9 | 251 | 0.0 | 1.6 | 0.00 | 0.00 | 0.00 | 68 | 1029.1 |
| 20260502024416 | 10 | 251 | 0.0 | 1.6 | 0.00 | 0.00 | 0.00 | 68 | 1029.1 |
| 20260502023917 | 10 | 220 | 0.0 | 0.0 | 0.00 | 0.00 | 0.00 | 67 | 1029.1 |
| 20260502023416 | 10 | 188 | 0.0 | 0.0 | 0.00 | 0.00 | 0.00 | 68 | 1029.1 |
| 20260502022916 | 10 | 243 | 0.0 | 0.0 | 0.00 | 0.00 | 0.00 | 68 | 1029.1 |
| 20260502022416 | 10 | 169 | 0.0 | 1.6 | 0.00 | 0.00 | 0.00 | 67 | 1029.1 |
| 20260502021916 | 10 | 116 | 0.0 | 1.6 | 0.00 | 0.00 | 0.00 | 67 | 1029.1 |
| 20260502021416 | 10 | 186 | 0.0 | 1.6 | 0.00 | 0.00 | 0.00 | 66 | 1029.1 |
| 20260502020916 | 10 | 152 | 0.0 | 3.2 | 0.00 | 0.00 | 0.00 | 65 | 1028.9 |
| 20260502020415 | 10 | 251 | 1.6 | 3.2 | 0.00 | 0.00 | 0.00 | 65 | 1029.1 |
| 20260502015918 | 10 | 246 | 1.6 | 3.2 | 0.00 | 0.00 | 0.00 | 65 | 1029.1 |
| 20260502014916 | 10 | 185 | 1.6 | 1.6 | 0.00 | 0.00 | 0.00 | 67 | 1029.1 |
| 20260502014416 | 10 | 256 | 0.0 | 1.6 | 0.00 | 0.00 | 0.00 | 67 | 1029.1 |
| 20260502013417 | 10 | 66 | 0.0 | 1.6 | 0.00 | 0.00 | 0.00 | 65 | 1029.0 |
| 20260502012916 | 10 | 66 | 0.0 | 1.6 | 0.00 | 0.00 | 0.00 | 65 | 1028.8 |
| 20260502012415 | 10 | 254 | 0.0 | 1.6 | 0.00 | 0.00 | 0.00 | 64 | 1029.1 |
| 20260502011916 | 10 | 250 | 0.0 | 1.6 | 0.00 | 0.00 | 0.00 | 65 | 1028.8 |
| 20260502011416 | 10 | 253 | 1.6 | 1.6 | 0.00 | 0.00 | 0.00 | 64 | 1028.8 |
| 20260502010917 | 10 | 256 | 0.0 | 1.6 | 0.00 | 0.00 | 0.00 | 65 | 1029.0 |
| 20260502010416 | 10 | 242 | 0.0 | 1.6 | 0.00 | 0.00 | 0.00 | 64 | 1029.0 |
| 20260502005916 | 10 | 51 | 0.0 | 1.6 | 0.00 | 0.00 | 0.00 | 63 | 1028.8 |
| 20260502005417 | 10 | 243 | 0.0 | 1.6 | 0.00 | 0.00 | 0.00 | 63 | 1028.9 |
| 20260502004915 | 10 | 240 | 0.0 | 1.6 | 0.00 | 0.00 | 0.00 | 63 | 1028.8 |
| 20260502004416 | 10 | 172 | 0.0 | 0.0 | 0.00 | 0.00 | 0.00 | 64 | 1029.1 |
| 20260502003915 | 10 | 79 | 0.0 | 0.0 | 0.00 | 0.00 | 0.00 | 64 | 1029.1 |
| 20260502003417 | 11 | 89 | 0.0 | 0.0 | 0.00 | 0.00 | 0.00 | 63 | 1029.1 |
| 20260502002918 | 11 | 93 | 0.0 | 0.0 | 0.00 | 0.00 | 0.00 | 62 | 1029.0 |
| 20260502002416 | 11 | 114 | 0.0 | 0.0 | 0.00 | 0.00 | 0.00 | 62 | 1028.9 |
| 20260502001915 | 10 | 107 | 0.0 | 1.6 | 0.00 | 0.00 | 0.00 | 62 | 1029.1 |
| 20260502000916 | 10 | 67 | 1.6 | 1.6 | 0.00 | 0.00 | 0.00 | 63 | 1029.1 |
| 20260502000417 | 10 | 253 | 0.0 | 1.6 | 0.00 | 0.00 | 0.00 | 62 | 1029.1 |
| 20260501235916 | 11 | 65 | 0.0 | 0.0 | 0.00 | 0.00 | 0.00 | 62 | 1029.1 |
| 20260501235416 | 11 | 72 | 0.0 | 0.0 | 0.00 | 0.00 | 0.00 | 61 | 1029.1 |
| 20260501234415 | 11 | 171 | 0.0 | 0.0 | 0.00 | 0.00 | 0.00 | 61 | 1029.0 |
| 20260501233916 | 11 | 167 | 0.0 | 0.0 | 0.00 | 0.00 | 0.00 | 61 | 1029.1 |
| 20260501233417 | 11 | 66 | 0.0 | 0.0 | 0.00 | 0.00 | 0.00 | 61 | 1028.9 |
| 20260501232915 | 11 | 67 | 0.0 | 0.0 | 0.00 | 0.00 | 0.00 | 61 | 1029.1 |
| 20260501232416 | 11 | 80 | 0.0 | 0.0 | 0.00 | 0.00 | 0.00 | 61 | 1029.1 |
| 20260501231916 | 11 | 78 | 0.0 | 0.0 | 0.00 | 0.00 | 0.00 | 60 | 1029.1 |
| 20260501231416 | 11 | 78 | 0.0 | 0.0 | 0.00 | 0.00 | 0.00 | 60 | 1028.8 |
| 20260501230917 | 11 | 168 | 0.0 | 0.0 | 0.00 | 0.00 | 0.00 | 60 | 1028.8 |
| 20260501230416 | 11 | 186 | 0.0 | 0.0 | 0.00 | 0.00 | 0.00 | 59 | 1028.9 |
| 20260501225916 | 11 | 205 | 0.0 | 0.0 | 0.00 | 0.00 | 0.00 | 59 | 1028.8 |
| 20260501224916 | 11 | 51 | 0.0 | 0.0 | 0.00 | 0.00 | 0.00 | 59 | 1028.8 |
| 20260501224418 | 11 | 57 | 0.0 | 0.0 | 0.00 | 0.00 | 0.00 | 59 | 1028.8 |
| 20260501223917 | 11 | 57 | 0.0 | 0.0 | 0.00 | 0.00 | 0.00 | 58 | 1028.8 |
| 20260501222916 | 11 | 59 | 0.0 | 1.6 | 0.00 | 0.00 | 0.00 | 56 | 1028.8 |
| 20260501222417 | 12 | 346 | 0.0 | 0.0 | 0.00 | 0.00 | 0.00 | 57 | 1028.8 |
| 20260501221916 | 12 | 345 | 0.0 | 0.0 | 0.00 | 0.00 | 0.00 | 57 | 1028.6 |
| 20260501221416 | 12 | 26 | 0.0 | 0.0 | 0.00 | 0.00 | 0.00 | 56 | 1028.4 |
| 20260501220918 | 12 | 42 | 0.0 | 0.0 | 0.00 | 0.00 | 0.00 | 56 | 1028.5 |
| 20260501220416 | 12 | 50 | 0.0 | 0.0 | 0.00 | 0.00 | 0.00 | 57 | 1028.4 |
| 20260501215916 | 12 | 41 | 0.0 | 1.6 | 0.00 | 0.00 | 0.00 | 56 | 1028.4 |
| 20260501215416 | 12 | 55 | 0.0 | 1.6 | 0.00 | 0.00 | 0.00 | 56 | 1028.4 |
| 20260501214916 | 12 | 95 | 0.0 | 0.0 | 0.00 | 0.00 | 0.00 | 56 | 1028.1 |